Time,TemperatureF,DewpointF,PressureIn,WindDirection,WindDirectionDegrees,WindSpeedMPH,WindSpeedGustMPH,Humidity,HourlyPrecipIn,Conditions,Clouds,dailyrainin,SoftwareType,DateUTC
2013-04-05 04:50:00,25.7,12.9,29.91,North,-999,0.0,0.0,58,0.00,,,-99.99,FreeWX 2.04,2013-04-05 08:50:00,
2013-04-05 07:37:00,26.1,12.2,29.97,North,-999,0.0,4.0,55,0.00,,,-99.99,FreeWX 2.04,2013-04-05 11:37:00,
2013-04-05 07:42:00,26.4,12.0,29.97,North,-999,0.0,0.0,54,0.00,,,-99.99,FreeWX 2.04,2013-04-05 11:42:00,
2013-04-05 07:47:00,26.6,12.2,29.97,North,-999,0.0,0.0,54,0.00,,,-99.99,FreeWX 2.04,2013-04-05 11:47:00,
2013-04-05 07:52:00,26.8,12.4,30.00,North,-999,0.0,0.0,54,0.00,,,-99.99,FreeWX 2.04,2013-04-05 11:52:00,
2013-04-05 07:57:00,27.1,12.4,30.00,North,-999,0.0,5.4,53,0.00,,,-99.99,FreeWX 2.04,2013-04-05 11:57:00,
2013-04-05 08:02:00,27.5,12.6,30.00,North,-999,0.0,3.1,53,0.00,,,-99.99,FreeWX 2.04,2013-04-05 12:02:00,
2013-04-05 08:07:00,28.0,13.1,30.00,North,-999,0.0,2.7,53,0.00,,,-99.99,FreeWX 2.04,2013-04-05 12:07:00,
2013-04-05 08:12:00,28.2,12.9,30.00,North,-999,0.0,0.0,52,0.00,,,-99.99,FreeWX 2.04,2013-04-05 12:12:00,
2013-04-05 08:17:00,28.8,12.9,30.00,North,-999,0.0,4.9,51,0.00,,,-99.99,FreeWX 2.04,2013-04-05 12:17:00,
2013-04-05 08:22:00,29.3,12.9,30.00,North,-999,0.0,4.5,50,0.00,,,-99.99,FreeWX 2.04,2013-04-05 12:22:00,
2013-04-05 08:27:00,29.8,12.6,30.00,North,-999,0.0,6.7,48,0.00,,,-99.99,FreeWX 2.04,2013-04-05 12:27:00,
2013-04-05 08:32:00,30.6,13.3,30.00,North,-999,0.0,6.9,48,0.00,,,-99.99,FreeWX 2.04,2013-04-05 12:32:00,
2013-04-05 08:37:00,31.1,12.7,30.00,North,-999,0.0,5.8,46,0.00,,,-99.99,FreeWX 2.04,2013-04-05 12:37:00,
2013-04-05 08:42:00,31.6,12.7,30.00,North,-999,0.0,4.0,45,0.00,,,-99.99,FreeWX 2.04,2013-04-05 12:42:00,
2013-04-05 08:47:00,31.5,11.7,30.00,North,-999,0.0,5.4,43,0.00,,,-99.99,FreeWX 2.04,2013-04-05 12:47:00,
2013-04-05 08:52:00,30.9,10.6,30.00,WNW,286,1.0,7.4,42,0.00,,,-99.99,FreeWX 2.04,2013-04-05 12:52:00,
2013-04-05 08:57:00,31.1,10.8,30.00,North,-999,0.0,2.7,42,0.00,,,-99.99,FreeWX 2.04,2013-04-05 12:57:00,
2013-04-05 09:02:00,32.0,12.0,30.00,North,-999,0.0,7.4,43,0.00,,,-99.99,FreeWX 2.04,2013-04-05 13:02:00,
2013-04-05 09:07:00,32.2,12.2,30.03,North,-999,0.0,5.8,43,0.00,,,-99.99,FreeWX 2.04,2013-04-05 13:07:00,
2013-04-05 09:12:00,32.5,12.0,30.03,North,-999,0.0,4.9,42,0.00,,,-99.99,FreeWX 2.04,2013-04-05 13:12:00,
2013-04-05 09:17:00,32.5,11.5,30.03,NNW,334,1.0,5.8,41,0.00,,,-99.99,FreeWX 2.04,2013-04-05 13:17:00,
2013-04-05 09:22:00,33.6,12.9,30.03,NNW,338,1.0,4.9,42,0.00,,,-99.99,FreeWX 2.04,2013-04-05 13:22:00,
2013-04-05 09:27:00,34.0,12.7,30.03,NNW,341,1.0,5.4,41,0.00,,,-99.99,FreeWX 2.04,2013-04-05 13:27:00,
2013-04-05 09:32:00,34.0,12.2,30.03,NNE,26,1.0,8.3,40,0.00,,,-99.99,FreeWX 2.04,2013-04-05 13:32:00,
2013-04-05 09:37:00,33.6,10.8,30.03,NNE,26,1.0,7.8,38,0.00,,,-99.99,FreeWX 2.04,2013-04-05 13:37:00,
2013-04-05 09:42:00,34.3,12.6,30.03,North,-999,0.0,4.9,40,0.00,,,-99.99,FreeWX 2.04,2013-04-05 13:42:00,
2013-04-05 09:47:00,34.7,11.1,30.03,NNW,347,1.0,8.3,37,0.00,,,-99.99,FreeWX 2.04,2013-04-05 13:47:00,
2013-04-05 09:52:00,35.8,12.0,30.03,NNE,28,1.0,5.8,37,0.00,,,-99.99,FreeWX 2.04,2013-04-05 13:52:00,
2013-04-05 09:57:00,36.5,10.2,30.03,NE,47,1.0,6.7,33,0.00,,,-99.99,FreeWX 2.04,2013-04-05 13:57:00,
2013-04-05 10:02:00,36.3,9.3,30.03,NE,56,2.0,6.7,32,0.00,,,-99.99,FreeWX 2.04,2013-04-05 14:02:00,
2013-04-05 10:07:00,35.8,8.1,30.03,NE,53,2.0,9.6,31,0.00,,,-99.99,FreeWX 2.04,2013-04-05 14:07:00,
2013-04-05 10:12:00,34.5,6.3,30.03,North,1,1.0,6.7,30,0.00,,,-99.99,FreeWX 2.04,2013-04-05 14:12:00,
2013-04-05 10:17:00,34.5,6.3,30.03,North,349,1.0,5.4,30,0.00,,,-99.99,FreeWX 2.04,2013-04-05 14:17:00,
2013-04-05 10:22:00,34.9,5.9,30.03,NNE,25,1.0,7.8,29,0.00,,,-99.99,FreeWX 2.04,2013-04-05 14:22:00,
2013-04-05 10:27:00,36.1,5.4,30.03,NE,55,2.0,9.6,27,0.00,,,-99.99,FreeWX 2.04,2013-04-05 14:27:00,
2013-04-05 11:08:00,36.5,0.3,30.06,NE,41,1.0,8.3,21,0.00,,,-99.99,FreeWX 2.04,2013-04-05 15:08:00,
2013-04-05 11:13:00,36.0,0.9,30.06,NE,38,1.0,6.7,22,0.00,,,-99.99,FreeWX 2.04,2013-04-05 15:13:00,
2013-04-05 11:18:00,37.2,0.9,30.06,NNE,33,2.0,8.7,21,0.00,,,-99.99,FreeWX 2.04,2013-04-05 15:18:00,
2013-04-05 11:23:00,38.8,2.3,30.06,NE,51,2.0,8.7,21,0.00,,,-99.99,FreeWX 2.04,2013-04-05 15:23:00,
2013-04-05 11:28:00,40.8,3.9,30.06,ENE,70,2.0,9.2,21,0.00,,,-99.99,FreeWX 2.04,2013-04-05 15:28:00,
2013-04-05 11:33:00,41.4,4.5,30.06,ENE,67,2.0,5.4,21,0.00,,,-99.99,FreeWX 2.04,2013-04-05 15:33:00,
2013-04-05 11:38:00,39.6,2.8,30.06,NNW,345,1.0,7.8,21,0.00,,,-99.99,FreeWX 2.04,2013-04-05 15:38:00,
2013-04-05 11:43:00,39.7,3.0,30.06,North,-999,0.0,4.5,21,0.00,,,-99.99,FreeWX 2.04,2013-04-05 15:43:00,
2013-04-05 11:48:00,40.1,3.4,30.06,North,-999,0.0,5.8,21,0.00,,,-99.99,FreeWX 2.04,2013-04-05 15:48:00,
2013-04-05 11:53:00,40.3,3.6,30.06,NNE,31,1.0,8.3,21,0.00,,,-99.99,FreeWX 2.04,2013-04-05 15:53:00,
2013-04-05 11:58:00,41.0,4.1,30.06,NNE,18,2.0,6.7,21,0.00,,,-99.99,FreeWX 2.04,2013-04-05 15:58:00,
2013-04-05 12:03:00,41.2,4.3,30.06,North,5,2.0,6.3,21,0.00,,,-99.99,FreeWX 2.04,2013-04-05 16:03:00,
2013-04-05 12:08:00,41.7,4.6,30.06,NNE,14,2.0,8.7,21,0.00,,,-99.99,FreeWX 2.04,2013-04-05 16:08:00,
2013-04-05 12:13:00,40.1,3.4,30.06,NNE,31,2.0,5.8,21,0.00,,,-99.99,FreeWX 2.04,2013-04-05 16:13:00,
2013-04-05 12:18:00,39.6,2.8,30.06,ENE,66,3.0,9.6,21,0.00,,,-99.99,FreeWX 2.04,2013-04-05 16:18:00,
2013-04-05 12:23:00,38.7,2.1,30.06,ENE,65,3.0,6.9,21,0.00,,,-99.99,FreeWX 2.04,2013-04-05 16:23:00,
2013-04-05 12:28:00,38.8,2.3,30.06,North,359,3.0,11.0,21,0.00,,,-99.99,FreeWX 2.04,2013-04-05 16:28:00,
2013-04-05 12:33:00,40.5,3.6,30.06,NNW,343,2.0,9.2,21,0.00,,,-99.99,FreeWX 2.04,2013-04-05 16:33:00,
2013-04-05 12:38:00,40.3,3.6,30.06,NNE,23,2.0,7.4,21,0.00,,,-99.99,FreeWX 2.04,2013-04-05 16:38:00,
2013-04-05 12:43:00,39.9,3.2,30.06,ENE,62,3.0,11.2,21,0.00,,,-99.99,FreeWX 2.04,2013-04-05 16:43:00,
2013-04-05 12:48:00,41.0,4.1,30.06,ENE,61,3.0,11.0,21,0.00,,,-99.99,FreeWX 2.04,2013-04-05 16:48:00,
2013-04-05 12:53:00,41.2,4.3,30.06,NE,56,3.0,10.1,21,0.00,,,-99.99,FreeWX 2.04,2013-04-05 16:53:00,
2013-04-05 12:58:00,42.1,1.8,30.06,ENE,72,3.0,7.8,18,0.00,,,-99.99,FreeWX 2.04,2013-04-05 16:58:00,
2013-04-05 13:03:00,42.1,3.9,30.06,ENE,71,2.0,6.3,20,0.00,,,-99.99,FreeWX 2.04,2013-04-05 17:03:00,
2013-04-05 13:08:00,41.2,4.3,30.06,ENE,57,2.0,6.9,21,0.00,,,-99.99,FreeWX 2.04,2013-04-05 17:08:00,
2013-04-05 13:13:00,40.6,3.7,30.06,NE,48,2.0,6.7,21,0.00,,,-99.99,FreeWX 2.04,2013-04-05 17:13:00,
2013-04-05 13:18:00,40.1,3.4,30.06,ENE,62,4.0,11.2,21,0.00,,,-99.99,FreeWX 2.04,2013-04-05 17:18:00,
2013-04-05 13:23:00,39.7,3.0,30.06,ENE,72,4.0,7.8,21,0.00,,,-99.99,FreeWX 2.04,2013-04-05 17:23:00,
2013-04-05 13:28:00,39.6,2.8,30.06,ENE,67,4.0,11.2,21,0.00,,,-99.99,FreeWX 2.04,2013-04-05 17:28:00,
2013-04-05 13:33:00,39.4,2.7,30.06,ENE,74,4.0,10.5,21,0.00,,,-99.99,FreeWX 2.04,2013-04-05 17:33:00,
2013-04-05 13:38:00,39.9,3.2,30.06,East,79,4.0,10.5,21,0.00,,,-99.99,FreeWX 2.04,2013-04-05 17:38:00,
2013-04-05 13:43:00,39.4,2.7,30.06,ENE,78,4.0,10.5,21,0.00,,,-99.99,FreeWX 2.04,2013-04-05 17:43:00,
2013-04-05 13:48:00,39.2,2.7,30.06,ENE,72,4.0,10.5,21,0.00,,,-99.99,FreeWX 2.04,2013-04-05 17:48:00,
2013-04-05 13:53:00,39.4,2.7,30.06,ENE,66,4.0,8.7,21,0.00,,,-99.99,FreeWX 2.04,2013-04-05 17:53:00,
2013-04-05 13:58:00,39.4,2.7,30.06,ENE,61,3.0,8.3,21,0.00,,,-99.99,FreeWX 2.04,2013-04-05 17:58:00,
2013-04-05 14:03:00,40.1,3.4,30.06,ENE,60,3.0,10.1,21,0.00,,,-99.99,FreeWX 2.04,2013-04-05 18:03:00,
2013-04-05 14:08:00,39.6,2.8,30.06,ENE,67,3.0,12.5,21,0.00,,,-99.99,FreeWX 2.04,2013-04-05 18:08:00,
2013-04-05 14:13:00,39.2,2.7,30.06,ENE,68,3.0,8.7,21,0.00,,,-99.99,FreeWX 2.04,2013-04-05 18:13:00,
2013-04-05 14:18:00,39.7,3.0,30.06,NE,55,3.0,7.8,21,0.00,,,-99.99,FreeWX 2.04,2013-04-05 18:18:00,
2013-04-05 14:23:00,38.8,2.3,30.06,ENE,57,4.0,11.6,21,0.00,,,-99.99,FreeWX 2.04,2013-04-05 18:23:00,
2013-04-05 14:28:00,39.2,2.7,30.06,ENE,66,4.0,7.8,21,0.00,,,-99.99,FreeWX 2.04,2013-04-05 18:28:00,
2013-04-05 14:39:00,39.9,3.2,30.06,ENE,71,3.0,9.2,21,0.00,,,-99.99,FreeWX 2.04,2013-04-05 18:39:00,
2013-04-05 14:44:00,39.2,2.7,30.06,ENE,71,4.0,10.5,21,0.00,,,-99.99,FreeWX 2.04,2013-04-05 18:44:00,
2013-04-05 14:49:00,39.0,2.5,30.06,ENE,70,3.0,7.8,21,0.00,,,-99.99,FreeWX 2.04,2013-04-05 18:49:00,
2013-04-05 14:54:00,39.0,2.5,30.06,ENE,70,3.0,11.6,21,0.00,,,-99.99,FreeWX 2.04,2013-04-05 18:54:00,
2013-04-05 14:59:00,38.7,2.1,30.06,ENE,70,4.0,10.1,21,0.00,,,-99.99,FreeWX 2.04,2013-04-05 18:59:00,
2013-04-05 15:04:00,39.0,2.5,30.06,ENE,70,3.0,11.2,21,0.00,,,-99.99,FreeWX 2.04,2013-04-05 19:04:00,
2013-04-05 15:09:00,39.4,2.7,30.06,ENE,59,2.0,11.0,21,0.00,,,-99.99,FreeWX 2.04,2013-04-05 19:09:00,
2013-04-05 15:14:00,39.4,2.7,30.06,ENE,65,3.0,9.6,21,0.00,,,-99.99,FreeWX 2.04,2013-04-05 19:14:00,
2013-04-05 15:19:00,38.8,2.3,30.06,ENE,67,4.0,9.2,21,0.00,,,-99.99,FreeWX 2.04,2013-04-05 19:19:00,
2013-04-05 15:24:00,38.7,2.1,30.06,ENE,66,3.0,9.2,21,0.00,,,-99.99,FreeWX 2.04,2013-04-05 19:24:00,
2013-04-05 15:34:00,39.4,2.7,30.06,NE,55,2.0,8.7,21,0.00,,,-99.99,FreeWX 2.04,2013-04-05 19:34:00,
2013-04-05 15:40:00,39.4,2.7,30.06,NE,54,2.0,7.4,21,0.00,,,-99.99,FreeWX 2.04,2013-04-05 19:40:00,
2013-04-05 15:45:00,39.2,2.7,30.06,NE,54,3.0,6.3,21,0.00,,,-99.99,FreeWX 2.04,2013-04-05 19:45:00,
2013-04-05 15:50:00,39.4,2.7,30.06,NE,56,2.0,7.4,21,0.00,,,-99.99,FreeWX 2.04,2013-04-05 19:50:00,
2013-04-05 15:55:00,39.9,3.2,30.06,ENE,59,2.0,6.9,21,0.00,,,-99.99,FreeWX 2.04,2013-04-05 19:55:00,
2013-04-05 16:00:00,40.3,3.6,30.06,ENE,67,2.0,7.4,21,0.00,,,-99.99,FreeWX 2.04,2013-04-05 20:00:00,
2013-04-05 16:05:00,39.9,3.2,30.06,ENE,62,2.0,6.3,21,0.00,,,-99.99,FreeWX 2.04,2013-04-05 20:05:00,
2013-04-05 16:10:00,39.0,2.5,30.06,NE,50,2.0,10.1,21,0.00,,,-99.99,FreeWX 2.04,2013-04-05 20:10:00,
2013-04-05 16:15:00,38.8,2.3,30.06,NE,51,3.0,6.9,21,0.00,,,-99.99,FreeWX 2.04,2013-04-05 20:15:00,
2013-04-05 16:20:00,39.6,2.8,30.06,ENE,57,2.0,6.9,21,0.00,,,-99.99,FreeWX 2.04,2013-04-05 20:20:00,
2013-04-05 16:25:00,40.5,3.6,30.06,NE,56,1.0,4.0,21,0.00,,,-99.99,FreeWX 2.04,2013-04-05 20:25:00,
2013-04-05 16:30:00,40.5,3.6,30.06,NE,56,1.0,6.3,21,0.00,,,-99.99,FreeWX 2.04,2013-04-05 20:30:00,
2013-04-05 16:35:00,40.1,3.4,30.03,NE,53,2.0,8.7,21,0.00,,,-99.99,FreeWX 2.04,2013-04-05 20:35:00,
2013-04-05 16:40:00,39.2,2.7,30.03,NE,49,3.0,7.8,21,0.00,,,-99.99,FreeWX 2.04,2013-04-05 20:40:00,
2013-04-05 16:45:00,21.2,-99.9,30.03,NE,40,2.0,7.4,-999,0.00,,,-99.99,FreeWX 2.04,2013-04-05 20:45:00,
2013-04-05 16:50:00,39.0,2.5,30.03,NE,45,1.0,5.8,21,0.00,,,-99.99,FreeWX 2.04,2013-04-05 20:50:00,
2013-04-05 17:00:00,38.8,2.3,30.03,NE,41,1.0,6.9,21,0.00,,,-99.99,FreeWX 2.04,2013-04-05 21:00:00,
2013-04-05 17:10:00,38.8,2.3,30.06,ENE,65,1.0,6.3,21,0.00,,,-99.99,FreeWX 2.04,2013-04-05 21:10:00,
2013-04-05 17:15:00,38.1,1.8,30.06,ENE,62,2.0,7.4,21,0.00,,,-99.99,FreeWX 2.04,2013-04-05 21:15:00,
2013-04-05 17:20:00,37.6,1.2,30.06,NE,50,2.0,5.4,21,0.00,,,-99.99,FreeWX 2.04,2013-04-05 21:20:00,
2013-04-05 17:25:00,37.6,1.2,30.06,NE,49,1.0,8.3,21,0.00,,,-99.99,FreeWX 2.04,2013-04-05 21:25:00,
2013-04-05 17:30:00,37.0,0.9,30.06,NE,54,1.0,6.9,21,0.00,,,-99.99,FreeWX 2.04,2013-04-05 21:30:00,
2013-04-05 17:35:00,36.9,3.6,30.06,ENE,58,2.0,5.8,24,0.00,,,-99.99,FreeWX 2.04,2013-04-05 21:35:00,
2013-04-05 17:45:00,36.3,3.0,30.06,NE,47,2.0,4.9,24,0.00,,,-99.99,FreeWX 2.04,2013-04-05 21:45:00,
2013-04-05 17:50:00,36.3,3.0,30.06,ENE,63,1.0,6.9,24,0.00,,,-99.99,FreeWX 2.04,2013-04-05 21:50:00,
2013-04-05 18:05:00,36.1,2.8,30.06,NE,49,2.0,6.7,24,0.00,,,-99.99,FreeWX 2.04,2013-04-05 22:05:00,
2013-04-05 18:10:00,36.0,2.7,30.06,NE,43,1.0,6.7,24,0.00,,,-99.99,FreeWX 2.04,2013-04-05 22:10:00,
2013-04-05 18:15:00,36.0,2.7,30.06,NE,44,1.0,8.3,24,0.00,,,-99.99,FreeWX 2.04,2013-04-05 22:15:00,
2013-04-05 18:20:00,36.3,5.5,30.06,NE,46,1.0,5.8,27,0.00,,,-99.99,FreeWX 2.04,2013-04-05 22:20:00,
2013-04-05 18:25:00,36.0,5.2,30.06,North,-999,0.0,4.0,27,0.00,,,-99.99,FreeWX 2.04,2013-04-05 22:25:00,
2013-04-05 18:30:00,36.7,5.0,30.06,North,-999,0.0,0.0,26,0.00,,,-99.99,FreeWX 2.04,2013-04-05 22:30:00,
2013-04-05 18:35:00,36.7,5.0,30.06,North,-999,0.0,0.0,26,0.00,,,-99.99,FreeWX 2.04,2013-04-05 22:35:00,
2013-04-05 18:40:00,36.9,5.2,30.06,North,-999,0.0,2.7,26,0.00,,,-99.99,FreeWX 2.04,2013-04-05 22:40:00,
2013-04-05 18:45:00,37.2,5.5,30.06,North,-999,0.0,2.7,26,0.00,,,-99.99,FreeWX 2.04,2013-04-05 22:45:00,
2013-04-05 18:50:00,37.0,5.4,30.06,North,-999,0.0,2.7,26,0.00,,,-99.99,FreeWX 2.04,2013-04-05 22:50:00,
2013-04-05 18:55:00,36.9,5.2,30.06,North,-999,0.0,2.7,26,0.00,,,-99.99,FreeWX 2.04,2013-04-05 22:55:00,
2013-04-05 19:00:00,36.3,5.5,30.06,North,-999,0.0,0.0,27,0.00,,,-99.99,FreeWX 2.04,2013-04-05 23:00:00,
2013-04-05 19:05:00,36.0,5.2,30.06,North,-999,0.0,0.0,27,0.00,,,-99.99,FreeWX 2.04,2013-04-05 23:05:00,
2013-04-05 19:10:00,35.4,4.8,30.06,North,-999,0.0,0.0,27,0.00,,,-99.99,FreeWX 2.04,2013-04-05 23:10:00,
2013-04-05 19:15:00,34.9,4.3,30.06,North,-999,0.0,0.0,27,0.00,,,-99.99,FreeWX 2.04,2013-04-05 23:15:00,
2013-04-05 19:20:00,34.5,4.1,30.06,North,-999,0.0,0.0,27,0.00,,,-99.99,FreeWX 2.04,2013-04-05 23:20:00,
2013-04-05 19:25:00,34.2,6.1,30.06,North,-999,0.0,0.0,30,0.00,,,-99.99,FreeWX 2.04,2013-04-05 23:25:00,
2013-04-05 19:30:00,33.8,5.7,30.06,North,-999,0.0,0.0,30,0.00,,,-99.99,FreeWX 2.04,2013-04-05 23:30:00,
2013-04-05 19:36:00,33.6,5.5,30.09,North,-999,0.0,0.0,30,0.00,,,-99.99,FreeWX 2.04,2013-04-05 23:36:00,
2013-04-05 19:41:00,33.3,5.2,30.09,North,-999,0.0,0.0,30,0.00,,,-99.99,FreeWX 2.04,2013-04-05 23:41:00,
2013-04-05 19:46:00,32.9,4.8,30.09,North,-999,0.0,0.0,30,0.00,,,-99.99,FreeWX 2.04,2013-04-05 23:46:00,
2013-04-05 19:51:00,32.5,5.4,30.09,North,-999,0.0,0.0,31,0.00,,,-99.99,FreeWX 2.04,2013-04-05 23:51:00,
2013-04-05 19:56:00,32.4,5.2,30.09,North,-999,0.0,0.0,31,0.00,,,-99.99,FreeWX 2.04,2013-04-05 23:56:00,
2013-04-05 20:01:00,31.8,4.6,30.09,North,-999,0.0,0.0,31,0.00,,,-99.99,FreeWX 2.04,2013-04-06 00:01:00,
2013-04-05 20:06:00,31.3,4.3,30.09,North,-999,0.0,0.0,31,0.00,,,-99.99,FreeWX 2.04,2013-04-06 00:06:00,
2013-04-05 20:11:00,30.9,4.6,30.09,North,-999,0.0,0.0,32,0.00,,,-99.99,FreeWX 2.04,2013-04-06 00:11:00,
2013-04-05 20:16:00,30.7,5.0,30.09,North,-999,0.0,0.0,33,0.00,,,-99.99,FreeWX 2.04,2013-04-06 00:16:00,
2013-04-05 20:21:00,30.4,4.8,30.09,North,-999,0.0,0.0,33,0.00,,,-99.99,FreeWX 2.04,2013-04-06 00:21:00,
2013-04-05 20:26:00,30.2,5.9,30.09,North,-999,0.0,0.0,35,0.00,,,-99.99,FreeWX 2.04,2013-04-06 00:26:00,
2013-04-05 20:31:00,29.8,5.5,30.09,North,-999,0.0,0.0,35,0.00,,,-99.99,FreeWX 2.04,2013-04-06 00:31:00,
2013-04-05 20:36:00,29.5,5.9,30.09,North,-999,0.0,0.0,36,0.00,,,-99.99,FreeWX 2.04,2013-04-06 00:36:00,
2013-04-05 20:41:00,29.1,6.1,30.09,North,-999,0.0,0.0,37,0.00,,,-99.99,FreeWX 2.04,2013-04-06 00:41:00,
2013-04-05 20:46:00,28.9,6.6,30.09,North,-999,0.0,0.0,38,0.00,,,-99.99,FreeWX 2.04,2013-04-06 00:46:00,
2013-04-05 20:51:00,28.6,7.3,30.09,North,-999,0.0,0.0,40,0.00,,,-99.99,FreeWX 2.04,2013-04-06 00:51:00,
2013-04-05 20:56:00,28.2,7.5,30.09,North,-999,0.0,0.0,41,0.00,,,-99.99,FreeWX 2.04,2013-04-06 00:56:00,
2013-04-05 21:01:00,27.9,7.3,30.09,North,-999,0.0,0.0,41,0.00,,,-99.99,FreeWX 2.04,2013-04-06 01:01:00,
2013-04-05 21:06:00,27.7,7.2,30.09,North,-999,0.0,0.0,41,0.00,,,-99.99,FreeWX 2.04,2013-04-06 01:06:00,
2013-04-05 21:11:00,27.5,7.5,30.09,North,-999,0.0,0.0,42,0.00,,,-99.99,FreeWX 2.04,2013-04-06 01:11:00,
2013-04-05 21:21:00,27.5,7.5,30.09,North,-999,0.0,0.0,42,0.00,,,-99.99,FreeWX 2.04,2013-04-06 01:21:00,
2013-04-05 21:26:00,27.3,7.9,30.09,North,-999,0.0,0.0,43,0.00,,,-99.99,FreeWX 2.04,2013-04-06 01:26:00,
2013-04-05 21:36:00,27.1,7.7,30.09,North,-999,0.0,0.0,43,0.00,,,-99.99,FreeWX 2.04,2013-04-06 01:36:00,
2013-04-05 21:41:00,27.1,8.2,30.09,North,-999,0.0,0.0,44,0.00,,,-99.99,FreeWX 2.04,2013-04-06 01:41:00,
2013-04-05 21:46:00,27.0,8.1,30.09,North,-999,0.0,0.0,44,0.00,,,-99.99,FreeWX 2.04,2013-04-06 01:46:00,
2013-04-05 21:51:00,26.8,7.9,30.12,North,-999,0.0,0.0,44,0.00,,,-99.99,FreeWX 2.04,2013-04-06 01:51:00,
2013-04-05 21:56:00,26.8,7.9,30.12,North,-999,0.0,0.0,44,0.00,,,-99.99,FreeWX 2.04,2013-04-06 01:56:00,